Theta_e
312 312 311 310 309 310 311 311 313 313 312 313 313 313 312 311 311 313 316 314 316 316 314 317 317 318 323 325 327 327 331 338 340 341 342 341 342 341 341 340 339 338 337 336 337 339 338 337 338 337 337 338 340 340 340 340 341 341 341 341 341 340 340 339 339 339 339 339 339 338 338 338 338 338 338 339 339 339 338 338 338 338 337 336 336 336
312 312 312 311 310 311 312 313 315 315 314 313 313 312 311 311 311 314 315 315 316 316 315 317 318 318 323 326 327 327 331 338 339 339 342 341 340 340 340 341 340 339 337 335 335 336 338 339 339 339 337 338 339 339 338 338 339 339 340 340 339 339 339 340 340 340 339 339 339 338 338 338 338 338 338 338 339 339 339 339 339 339 338 338 336 335
312 312 312 312 312 311 313 314 315 315 315 313 313 312 311 312 313 312 315 315 315 316 316 317 316 318 323 327 326 326 331 338 339 338 339 341 340 341 342 343 343 342 339 337 337 338 340 340 339 339 339 339 339 339 339 339 340 339 340 339 339 339 339 340 340 340 339 339 340 339 339 339 339 339 338 339 339 339 339 339 339 339 338 338 337 336
312 312 312 313 313 313 314 314 314 314 314 313 312 312 311 313 312 310 313 316 316 317 317 317 319 321 327 330 327 330 337 340 339 339 339 340 340 341 341 342 343 342 341 339 340 340 340 339 339 339 338 338 338 338 338 339 339 339 340 339 339 339 339 339 339 339 339 338 339 339 339 339 338 337 337 337 337 337 338 338 339 338 338 337 336 336
312 312 312 314 314 314 315 314 314 313 312 313 313 312 312 313 313 312 314 315 315 317 319 320 323 324 328 332 329 332 338 340 338 339 339 338 339 339 340 342 342 341 340 340 340 339 339 338 338 338 337 337 337 337 337 337 338 338 338 338 338 338 339 338 337 338 338 337 338 338 338 338 338 337 337 337 337 337 338 338 338 338 338 337 336 336
312 313 313 313 313 314 314 313 312 312 311 312 313 313 313 314 315 314 315 315 313 313 318 322 325 327 329 331 331 334 340 342 339 339 339 337 336 337 340 341 341 340 339 338 337 337 336 335 336 336 336 337 337 337 337 337 337 337 337 337 337 337 337 337 337 337 337 337 338 338 338 338 338 338 338 338 337 338 338 338 338 339 338 338 338 337
313 314 314 314 314 314 313 312 311 311 311 311 313 314 315 315 315 315 314 313 311 312 317 321 327 330 329 327 332 336 339 342 341 340 339 337 336 336 339 339 338 338 336 335 334 334 334 333 333 334 334 335 334 335 336 336 336 336 337 337 337 337 337 337 337 337 337 337 338 338 338 337 337 337 337 337 337 337 338 338 338 339 339 338 338 338
312 313 314 313 314 313 311 311 311 311 311 310 314 315 316 315 314 314 313 312 313 314 320 325 326 328 327 327 333 335 338 341 343 343 340 337 337 336 337 337 335 334 333 332 332 332 332 332 332 331 331 331 331 331 332 332 332 332 333 334 334 334 334 334 335 336 336 336 337 337 337 337 336 336 337 338 337 337 338 338 338 338 338 338 337 338
312 313 314 313 313 311 311 311 311 312 312 312 315 316 316 316 315 317 314 313 315 314 318 326 326 328 328 327 332 334 336 341 345 343 341 338 336 336 335 334 332 331 330 330 330 330 330 330 330 329 329 328 328 329 329 329 329 330 330 330 330 330 331 331 332 332 333 334 334 335 335 335 335 335 336 336 337 337 337 337 337 337 337 336 336 336
312 313 314 312 311 311 311 312 311 312 313 314 316 316 316 316 316 318 315 314 316 315 318 323 324 328 329 327 331 333 333 341 345 341 338 336 334 333 333 332 330 329 329 328 328 328 329 328 328 328 327 327 326 327 327 327 327 327 328 328 328 327 328 328 328 329 330 331 331 331 332 333 333 333 334 335 335 336 336 336 336 336 336 336 336 335
313 313 314 313 312 312 312 312 312 312 314 315 315 314 314 316 318 318 318 316 314 315 318 319 320 324 326 326 328 331 334 341 344 340 337 335 333 332 331 330 329 328 329 328 328 327 327 327 326 326 326 325 325 325 325 326 325 326 326 327 326 325 326 326 326 327 327 328 329 329 330 330 330 331 332 333 333 334 335 336 336 336 335 335 335 334
313 313 313 314 313 313 313 312 313 313 314 316 315 314 313 315 314 313 315 315 315 318 316 315 317 318 321 326 329 334 340 340 341 339 337 334 332 331 330 329 328 327 328 327 327 327 326 326 326 326 325 325 325 324 324 325 325 325 325 325 326 325 325 325 325 325 325 325 326 327 328 328 328 328 329 330 332 333 333 334 334 335 335 333 332 332
313 313 312 313 314 314 312 312 313 313 314 315 314 314 313 313 313 312 316 317 316 317 314 315 316 313 322 332 334 339 340 338 337 336 334 332 330 330 329 329 328 327 327 326 326 326 325 326 325 325 325 324 324 324 324 324 324 324 324 325 325 324 324 324 324 323 324 323 324 325 325 326 326 326 327 328 330 332 332 331 332 333 333 333 332 332
314 313 312 313 314 314 313 311 311 312 313 314 311 313 315 314 313 314 317 319 317 316 314 315 313 315 332 340 337 339 338 335 335 332 330 329 328 328 328 327 327 326 326 326 326 325 324 324 324 324 324 324 324 324 323 323 322 323 323 323 323 322 322 322 323 323 323 323 323 323 323 323 324 325 326 327 329 331 331 331 331 331 331 332 332 332
315 316 313 313 313 313 314 312 312 312 312 313 313 315 316 315 316 317 316 318 320 317 313 313 318 328 341 342 336 336 334 332 331 328 328 327 326 327 326 325 326 325 325 325 324 324 324 324 324 323 323 322 322 323 323 322 322 323 323 322 321 321 320 321 321 322 323 324 323 322 322 323 323 324 324 326 327 328 329 330 331 331 331 332 331 331
314 314 313 314 314 313 313 312 313 314 312 315 315 314 314 316 320 321 321 325 325 319 318 326 334 337 339 335 332 332 331 329 329 327 327 327 325 325 325 325 325 324 324 324 323 323 323 323 323 322 322 322 322 322 322 321 322 322 321 321 320 320 319 320 321 321 321 321 321 321 322 323 323 323 323 324 324 325 327 329 330 330 330 331 331 331
315 315 314 314 314 312 313 313 312 314 314 315 315 313 315 317 320 320 320 325 326 324 329 336 340 339 337 335 331 330 329 329 328 327 327 326 325 325 325 325 324 324 323 323 322 322 322 321 322 322 322 321 321 322 322 321 321 321 321 320 319 319 320 319 320 320 320 320 320 321 321 322 322 322 322 322 322 323 325 325 326 327 328 329 330 330
317 317 314 313 314 312 314 314 313 314 315 314 313 314 315 314 319 324 321 319 322 329 334 337 340 340 340 339 334 331 331 330 328 327 327 325 325 324 325 324 323 323 322 321 321 320 320 320 320 320 320 321 321 320 321 320 320 320 320 319 319 319 319 320 321 321 320 320 320 321 321 321 321 321 321 321 321 321 321 322 323 324 325 326 328 329
316 316 315 313 314 314 313 314 315 314 314 315 314 315 317 315 315 320 321 318 320 330 338 339 339 340 339 337 336 334 332 331 328 327 326 325 324 324 324 323 322 322 321 320 320 320 319 319 320 320 320 320 320 320 320 319 320 320 319 319 319 319 319 320 321 321 321 320 320 320 321 319 319 320 319 319 320 320 319 319 320 321 322 324 325 326
318 318 318 314 313 315 313 314 314 314 315 314 314 314 316 318 317 317 317 320 321 330 341 341 339 340 338 334 335 333 331 329 328 327 326 324 324 323 323 322 321 321 320 320 320 320 319 318 319 320 319 319 320 320 319 319 319 319 319 319 319 319 319 320 320 320 319 319 318 318 319 319 319 319 318 318 318 318 318 318 318 319 320 322 323 324
317 319 322 318 312 314 314 313 314 314 314 313 312 314 313 313 318 318 316 318 321 328 338 342 340 341 336 333 333 332 329 328 327 326 325 324 323 322 322 321 321 320 320 319 321 321 319 318 319 319 319 319 319 319 318 318 318 318 318 318 318 319 318 319 320 319 318 318 317 317 317 317 318 317 316 317 316 317 317 317 317 318 319 319 320 321
319 322 326 321 312 312 314 313 314 314 314 313 313 314 314 314 316 317 316 314 314 320 331 339 341 339 335 334 333 330 328 327 326 325 324 323 322 322 321 321 319 319 319 320 321 320 318 318 319 318 318 318 318 318 318 317 317 317 318 318 317 318 318 318 319 318 318 317 317 317 316 316 316 315 315 315 315 315 315 316 316 316 317 317 318 319
326 324 324 319 313 314 315 314 315 314 313 314 314 314 317 318 316 317 323 321 312 315 328 338 342 337 333 334 333 329 327 327 325 324 323 322 322 321 320 319 318 318 319 320 320 319 318 318 318 317 317 317 317 318 317 317 317 316 317 317 316 317 317 317 317 316 316 316 316 316 315 315 314 314 314 314 313 314 314 314 314 314 315 315 315 317
324 321 320 317 314 315 315 313 314 314 314 312 314 315 316 318 319 323 332 330 318 318 330 341 343 337 332 332 332 328 326 325 324 322 322 322 321 320 318 317 317 318 319 320 319 318 317 317 317 316 316 316 317 316 316 316 316 315 316 316 316 316 316 316 316 316 315 315 315 315 314 313 313 313 313 312 312 312 313 312 312 312 313 313 313 313
318 321 325 321 317 317 317 316 315 313 313 314 315 315 315 318 318 319 326 324 317 321 332 341 341 337 332 330 328 326 325 323 323 321 321 321 319 318 317 317 317 318 319 320 319 318 317 316 316 316 316 316 316 315 315 315 315 314 315 315 315 315 315 315 315 315 314 314 315 314 313 313 312 312 312 311 311 311 311 311 311 311 311 311 311 311
318 324 328 325 321 321 319 317 316 313 312 316 318 315 314 316 317 320 325 322 318 325 335 339 339 335 331 328 326 325 324 323 322 321 319 319 318 317 317 317 317 318 318 318 318 318 317 316 315 315 315 315 315 314 314 314 314 314 314 314 314 314 314 315 314 314 314 313 314 313 313 312 312 312 312 311 311 310 310 310 310 310 309 309 309 309
318 323 326 325 323 322 319 316 316 315 313 315 317 315 314 316 317 321 329 327 323 331 339 336 335 334 330 328 326 324 323 322 322 321 319 318 318 317 317 317 317 318 317 317 318 317 315 315 314 313 313 314 313 313 313 313 313 313 313 313 313 314 313 313 313 313 313 313 313 312 312 312 311 311 311 311 310 310 310 309 309 309 308 308 308 307
321 322 323 324 323 320 317 315 315 316 315 315 317 317 317 318 316 318 328 332 329 335 339 334 331 333 331 328 326 324 323 322 321 320 319 318 317 317 317 317 317 317 317 317 316 314 314 314 313 312 312 312 312 312 312 312 312 312 312 312 313 313 312 312 312 312 312 312 312 311 311 311 311 310 310 310 310 309 308 308 308 307 307 307 306 306
325 325 324 323 323 321 318 316 317 315 314 315 317 319 320 320 318 319 330 338 333 333 337 334 331 333 331 327 325 324 322 320 319 318 317 317 316 316 316 317 317 316 315 314 313 313 315 314 312 311 311 311 311 311 311 311 311 311 311 311 312 311 311 310 310 310 311 311 311 311 310 310 310 309 309 309 308 308 308 307 307 306 306 305 305 305
328 330 326 321 323 326 325 324 325 324 318 313 316 323 326 325 325 331 336 338 337 335 333 332 332 331 329 325 324 322 319 318 317 317 316 316 316 316 316 316 316 315 313 312 313 314 314 312 310 310 310 310 310 310 310 310 310 310 310 310 311 310 310 309 309 309 310 310 310 310 309 309 309 308 308 308 307 307 307 307 306 305 305 305 304 304
335 333 328 326 325 327 333 333 332 332 327 323 326 332 335 333 334 337 336 334 335 334 331 329 330 328 325 323 322 320 318 317 317 316 316 316 316 316 316 315 313 312 312 312 313 314 312 310 309 310 309 309 309 309 309 309 309 309 309 310 310 309 308 308 308 308 309 309 309 309 309 308 308 308 307 307 307 307 306 306 306 305 304 304 303 303
340 336 333 333 330 329 333 335 334 332 329 329 332 332 335 337 335 333 333 333 332 331 328 328 328 325 321 320 320 319 318 317 317 316 316 316 316 315 314 313 312 311 311 312 312 313 312 310 309 309 309 308 309 309 309 309 308 309 310 309 309 308 307 307 307 308 308 308 307 307 307 307 307 307 307 306 306 306 306 306 306 305 304 304 303 303
336 337 335 333 332 329 329 333 337 334 331 332 332 328 330 334 332 330 331 331 330 328 328 328 325 321 319 319 319 319 318 318 317 316 316 316 315 314 312 311 311 311 311 312 311 311 311 309 308 309 309 308 308 308 308 308 308 308 309 308 308 308 307 307 307 307 307 306 306 306 306 306 306 306 306 306 306 305 305 305 305 305 304 303 303 303
331 337 336 332 331 329 328 333 336 334 333 332 328 325 327 327 326 325 324 324 325 324 323 323 320 317 318 318 318 318 317 317 316 315 315 315 314 312 311 310 310 311 311 311 311 310 309 308 308 308 308 307 307 307 308 307 307 308 308 307 307 307 307 307 306 306 306 305 305 304 304 304 304 304 304 304 305 304 304 304 305 305 304 303 303 302
331 336 336 332 329 328 330 331 331 330 329 327 324 323 322 320 319 320 319 318 319 319 318 318 317 316 317 316 315 314 313 312 312 313 313 312 311 310 310 310 310 310 311 311 310 308 307 307 307 307 307 307 307 307 307 307 306 307 307 307 307 307 306 306 306 306 305 305 304 303 303 302 302 302 302 302 303 303 304 304 304 304 303 303 302 302
331 333 334 330 327 327 329 330 329 326 324 324 323 321 321 321 321 322 321 318 317 317 317 316 315 314 314 312 311 310 309 309 310 310 311 310 310 309 309 310 310 310 310 309 308 307 307 307 307 307 306 306 306 307 306 306 306 306 306 307 306 306 306 305 305 305 304 304 304 303 303 302 302 301 301 301 302 302 302 303 303 303 303 302 302 301
325 328 331 330 327 326 327 326 324 323 323 325 323 320 322 325 324 322 322 319 316 316 315 314 313 311 310 310 309 308 309 309 310 310 310 309 309 309 308 308 309 309 308 308 307 307 307 307 306 306 306 306 306 306 306 306 305 305 305 306 305 305 305 304 304 304 303 303 303 303 303 303 301 300 299 300 300 301 301 301 302 302 302 301 301 301
322 325 329 330 327 326 326 324 324 325 326 326 326 323 324 325 320 318 319 317 315 313 312 311 311 309 308 309 308 308 310 311 310 309 309 309 309 308 307 307 307 307 307 307 307 307 306 306 306 306 306 306 306 305 305 305 305 304 305 305 305 305 305 304 304 303 302 302 302 302 303 302 300 298 298 298 299 299 300 300 300 300 299 300 300 301
323 323 325 328 329 328 328 327 327 327 325 325 327 325 323 322 319 319 322 319 314 311 309 309 308 308 308 308 308 309 312 312 310 308 308 308 308 307 307 307 307 307 307 306 306 306 306 306 306 306 306 306 305 305 305 305 305 304 304 304 304 304 304 304 303 302 301 301 301 301 302 301 300 298 298 298 298 298 298 299 299 298 298 298 299 299
325 321 323 328 328 326 328 328 326 326 325 325 326 324 322 322 321 323 328 323 313 309 309 307 307 307 307 308 309 311 312 311 308 306 306 307 306 306 307 306 306 306 306 306 306 306 306 306 305 305 305 305 305 305 305 304 304 304 304 303 304 304 303 303 303 302 301 301 301 301 301 301 300 299 298 298 298 298 297 298 298 297 297 297 297 298
324 321 322 325 324 323 326 326 324 325 326 325 325 324 324 324 326 329 329 319 311 308 308 307 307 307 307 308 309 310 309 308 306 305 305 305 306 306 306 306 306 306 306 306 306 306 305 305 304 304 304 304 305 305 304 304 304 304 303 303 303 303 303 303 303 302 302 302 301 301 301 301 300 299 298 298 297 297 297 297 297 297 296 296 296 296
326 323 321 322 323 323 324 323 324 326 324 322 323 323 322 326 330 327 320 312 309 309 308 307 307 307 307 307 307 306 306 305 305 305 305 305 306 306 305 305 305 305 305 305 305 305 304 304 304 304 303 303 304 304 304 304 304 303 303 303 303 303 303 302 302 302 302 302 302 301 301 301 300 300 299 298 297 297 297 297 297 296 296 295 295 295
325 324 323 323 324 324 323 323 325 326 322 320 323 323 322 325 324 317 311 309 309 308 307 307 307 307 307 306 305 304 304 304 304 305 305 305 305 305 305 305 305 305 305 305 305 304 304 304 303 303 303 303 303 303 303 303 303 303 303 303 303 302 302 303 302 302 302 302 302 301 300 300 300 300 299 298 298 297 297 296 296 296 295 295 295 295
323 323 325 323 322 324 325 323 323 322 319 319 322 322 319 318 315 311 310 310 309 308 308 308 307 306 305 305 304 304 304 304 304 305 305 305 305 304 304 304 304 305 305 304 304 304 303 303 303 303 303 303 302 302 303 303 303 303 303 303 302 302 302 302 302 302 302 302 302 301 300 300 300 300 299 299 298 297 297 296 296 295 295 295 295 294
323 321 322 321 319 321 324 321 319 318 317 316 317 316 314 313 312 310 310 310 309 309 308 307 306 305 305 304 304 304 304 304 305 305 305 305 305 304 304 304 304 305 304 304 304 303 303 303 303 302 302 302 302 302 302 302 302 302 302 302 302 302 302 302 302 302 302 302 302 301 301 300 300 300 299 299 298 298 297 296 295 295 295 295 294 294
318 317 318 319 319 319 320 319 317 316 316 315 314 313 312 312 312 311 310 309 309 308 307 306 305 305 304 304 304 304 304 304 304 304 304 304 304 303 304 304 304 304 304 303 303 303 303 303 302 302 302 301 301 301 302 302 302 302 301 301 302 302 301 301 301 301 301 302 302 301 301 301 300 300 300 299 299 298 297 297 296 295 294 294 294 294
317 317 318 319 319 319 319 318 316 315 315 314 313 313 313 312 311 310 309 308 307 306 306 305 305 304 304 304 304 304 304 304 304 304 304 304 303 303 303 303 303 303 303 303 303 303 302 302 302 301 301 301 301 301 301 302 301 301 301 301 301 301 301 300 300 300 301 301 302 302 301 301 301 301 300 300 299 298 298 297 297 296 295 295 294 294
319 317 317 318 318 318 319 317 314 313 313 312 312 312 311 310 310 309 308 307 306 306 305 305 305 305 304 304 304 304 304 304 304 304 304 304 303 303 303 303 303 303 303 303 303 302 302 301 301 301 301 301 300 301 300 300 300 300 300 300 300 301 301 300 299 300 300 301 301 301 301 301 301 301 300 300 299 299 298 297 297 296 295 295 294 294
318 318 317 317 317 317 317 315 314 314 314 312 311 311 310 309 309 308 307 306 306 305 305 305 305 305 304 304 304 304 304 304 303 303 304 303 302 302 303 303 302 303 303 302 302 302 301 301 301 301 300 301 300 300 300 300 300 300 300 299 299 300 300 300 299 299 299 300 300 300 300 301 301 301 300 300 300 299 298 298 297 297 296 296 295 295
318 317 316 316 316 317 316 315 314 314 314 313 311 310 309 309 308 307 307 306 306 306 305 305 305 304 304 304 304 303 304 304 303 303 303 302 302 303 303 302 302 302 302 302 302 301 301 301 301 301 301 301 300 300 300 300 300 300 299 299 299 299 299 300 299 299 299 299 299 299 299 300 300 300 300 300 300 299 299 299 298 298 297 297 297 296
317 316 315 316 316 316 315 314 313 313 312 311 310 309 309 308 307 306 306 306 306 305 305 305 305 304 304 304 303 303 303 303 303 302 302 302 302 303 303 302 302 302 302 301 301 301 301 301 301 301 301 300 300 300 300 300 300 300 300 300 299 299 299 299 300 300 299 299 298 298 299 299 299 299 300 299 299 299 299 299 298 298 297 297 297 297
Wind_Speed
6 5 9 10 9 10 11 10 7 7 11 11 7 7 10 8 8 12 9 14 16 10 10 11 9 8 6 6 8 6 12 18 17 14 12 12 11 11 11 10 9 10 9 11 13 14 15 16 16 16 17 17 17 16 13 13 14 14 13 12 12 12 11 10 9 8 8 7 7 6 6 6 7 8 9 10 12 13 14 15 15 16 16 16 17 17
7 9 12 10 9 9 11 10 8 9 13 13 8 6 9 9 10 14 9 16 17 9 9 11 8 9 7 5 8 7 11 17 17 15 14 13 12 11 12 11 11 10 10 12 11 11 15 17 18 18 17 16 15 15 13 13 13 12 11 10 11 11 11 10 8 7 7 6 5 5 5 5 6 7 7 8 10 11 13 14 15 16 16 17 18 18
10 11 10 9 9 10 9 10 11 12 12 11 8 5 6 7 9 13 9 18 16 7 8 12 8 8 8 7 9 7 9 11 12 13 14 14 14 13 12 11 12 11 10 10 8 10 16 19 20 20 18 17 17 16 15 14 13 12 10 9 9 9 9 8 9 8 7 6 5 4 5 5 6 6 7 8 10 12 13 14 15 16 17 18 19 18
9 8 9 10 10 11 10 10 14 12 10 9 7 5 6 7 8 7 7 18 16 7 9 12 7 5 6 6 7 9 13 11 10 12 12 13 14 14 12 11 12 13 11 10 9 10 16 20 20 18 17 17 17 16 15 14 14 12 10 8 7 5 4 4 5 4 4 3 3 4 4 5 6 6 7 9 11 12 14 15 17 18 18 18 19 19
8 6 10 11 9 11 10 11 13 10 8 9 9 8 7 10 12 7 9 17 14 8 8 9 4 1 5 7 7 11 16 14 13 16 14 12 12 13 13 11 11 12 11 11 10 9 13 16 17 17 17 17 16 15 14 13 12 11 9 8 6 5 4 4 4 3 3 2 1 2 2 3 6 8 9 11 13 14 14 16 17 18 18 17 16 18
8 8 12 13 11 12 12 11 12 11 8 9 10 12 12 14 14 7 11 15 8 6 6 9 6 2 1 8 7 9 15 13 12 15 14 11 11 11 12 10 10 10 9 10 10 9 12 16 17 17 17 17 15 14 13 13 11 9 8 7 6 6 6 6 6 5 6 5 5 5 6 6 8 11 13 14 14 14 14 14 15 15 17 16 15 15
7 10 13 15 14 15 14 11 13 13 8 7 10 13 14 16 16 11 9 11 6 6 6 8 8 1 2 4 6 10 16 15 13 14 12 10 9 9 9 8 9 10 9 10 10 9 12 15 16 15 16 17 16 15 14 14 13 11 10 8 8 8 8 8 6 5 6 6 6 6 6 7 9 11 13 12 11 11 11 11 11 12 14 15 15 15
9 14 15 17 15 14 14 11 13 13 9 8 10 12 12 15 17 15 9 8 6 5 4 7 8 4 3 4 6 12 16 15 13 12 11 10 9 9 9 8 9 9 8 9 9 9 11 14 15 14 15 17 17 16 16 16 15 14 14 13 12 11 11 10 9 7 8 9 8 7 6 6 7 9 10 10 9 10 10 9 10 11 13 13 14 15
11 14 15 18 15 12 11 12 13 13 11 9 10 11 12 13 15 13 7 6 8 5 3 6 8 6 4 4 6 12 14 15 14 12 12 12 11 10 10 10 10 9 8 9 9 9 11 13 15 15 16 18 18 17 18 16 15 14 15 15 13 13 12 11 11 10 10 11 11 11 11 11 11 10 11 11 11 11 10 10 11 11 12 12 12 13
10 13 13 15 13 10 11 12 14 14 10 8 11 12 11 12 10 6 4 4 8 7 5 9 11 6 3 4 6 9 11 14 13 11 12 13 12 11 10 10 10 9 8 8 9 11 12 13 15 17 18 19 17 16 16 15 14 14 14 15 14 14 13 12 12 12 12 12 12 13 14 14 14 15 15 14 14 13 13 12 12 11 11 11 11 10
10 12 11 11 12 11 10 11 14 15 9 8 11 11 10 10 5 1 2 2 5 5 6 12 14 9 3 5 7 6 10 16 14 10 11 11 12 11 10 10 10 8 7 7 9 11 13 15 17 17 18 18 17 15 15 15 14 14 14 15 14 14 13 13 13 13 13 13 13 14 15 15 15 16 16 17 17 17 17 16 14 12 10 9 9 10
12 13 11 9 12 13 11 11 14 15 11 8 9 7 7 6 1 2 1 2 4 4 6 11 13 10 6 6 7 8 14 19 17 13 15 14 13 11 9 9 9 7 7 7 7 8 10 13 15 15 16 16 15 14 14 13 12 13 13 12 12 13 14 14 13 13 14 13 13 13 14 15 15 15 16 17 18 18 18 18 16 13 12 10 10 10
11 12 13 10 12 15 12 9 10 12 10 9 7 6 5 3 2 2 2 3 4 4 6 9 9 7 4 2 2 11 16 17 16 16 16 16 16 13 9 8 7 6 7 6 6 6 7 9 12 13 14 14 14 13 13 13 11 11 11 12 13 16 16 16 15 15 15 15 14 14 14 15 15 16 17 17 18 18 18 18 17 15 15 15 13 12
7 9 14 13 9 13 13 8 8 9 9 11 9 6 5 3 4 5 3 3 4 3 6 9 6 3 3 3 4 8 13 13 15 16 15 16 16 14 10 8 7 6 6 6 6 6 6 9 12 13 13 13 13 13 12 12 9 8 11 15 17 17 16 15 15 15 15 15 15 15 15 15 15 17 18 18 19 19 19 19 18 17 15 15 16 15
7 7 13 14 8 12 15 10 9 9 7 10 9 6 5 3 4 4 3 4 4 2 4 7 3 0 2 1 3 9 13 13 16 15 15 15 14 12 10 9 8 7 6 5 6 6 7 10 12 13 13 12 11 10 9 8 7 7 11 14 15 15 14 13 14 15 16 15 15 15 15 16 16 18 19 19 20 20 20 20 19 18 16 15 15 14
9 6 10 14 9 14 17 11 9 9 6 7 6 5 5 5 5 4 4 6 6 4 3 3 2 2 4 4 6 12 13 13 16 16 16 15 12 11 10 8 8 7 6 6 7 6 7 10 12 12 12 10 7 6 7 8 8 10 12 14 14 15 15 14 14 15 16 16 15 14 15 16 17 18 19 20 21 20 20 20 20 19 17 15 15 14
7 5 9 15 12 15 18 12 10 9 6 5 5 5 6 5 4 4 2 2 6 6 1 1 3 4 4 4 6 11 13 14 15 14 15 14 13 12 10 8 8 7 7 7 7 6 7 10 11 11 10 9 7 7 8 9 9 10 13 15 15 14 14 14 13 14 16 17 16 16 17 17 17 18 19 19 21 21 20 21 21 20 19 18 17 16
5 2 7 16 15 14 14 12 11 9 6 5 5 6 4 4 4 4 3 0 4 5 1 0 5 6 5 2 4 10 12 12 12 13 14 13 12 11 9 8 8 8 8 8 8 7 8 9 11 11 10 9 8 10 10 10 12 14 16 16 15 13 14 12 11 13 16 18 18 18 19 19 18 18 19 18 20 20 21 21 21 21 22 21 20 19
6 2 5 13 13 9 9 9 8 8 7 6 6 6 5 4 5 3 4 3 4 4 1 2 6 6 4 4 8 12 13 13 13 13 13 12 11 10 10 9 8 8 8 7 7 6 7 9 9 9 9 7 8 10 11 13 16 17 17 17 16 16 18 14 11 13 17 19 20 20 19 20 19 19 20 20 20 20 21 21 21 22 22 22 21 21
5 3 3 10 11 8 6 5 6 7 7 5 5 5 5 5 4 4 4 4 5 4 3 5 6 4 2 5 11 13 14 16 15 13 12 12 11 10 9 8 7 7 7 7 6 5 6 9 8 8 8 8 9 11 13 17 20 18 17 19 19 19 22 20 15 16 19 21 22 21 21 22 22 21 22 22 21 21 22 22 22 22 23 23 22 22
2 3 1 6 9 9 5 6 9 8 6 4 4 6 6 4 4 4 3 3 5 5 4 5 3 3 1 4 10 12 13 15 15 12 11 11 11 10 9 8 7 7 7 6 5 5 6 8 9 9 9 9 12 15 17 19 19 18 18 21 20 19 22 23 19 18 21 23 24 24 24 25 25 24 25 24 24 23 22 23 23 23 23 23 23 23
3 3 1 3 6 6 6 10 12 9 6 5 4 5 6 5 5 4 2 2 3 4 5 6 4 2 2 1 7 12 12 12 14 13 11 11 11 10 9 9 8 7 6 5 5 4 4 7 10 12 13 13 15 18 18 18 18 19 20 21 20 18 20 23 23 21 22 25 26 26 26 27 27 27 27 26 26 24 23 24 24 23 23 23 23 23
3 3 3 3 5 4 5 10 12 10 7 6 5 4 5 5 5 5 3 4 2 3 5 4 3 1 4 2 8 12 11 12 13 14 13 11 10 10 10 10 8 7 7 6 5 3 2 7 12 14 15 16 17 18 18 18 19 19 19 20 19 20 21 23 24 24 25 26 27 27 28 28 28 28 28 28 27 25 24 24 24 24 23 23 24 23
3 2 4 5 4 3 5 6 9 11 9 6 6 5 5 5 6 6 4 5 4 3 5 4 2 1 2 4 9 12 12 13 12 13 14 11 9 10 11 10 8 7 6 5 4 4 7 12 14 14 14 14 16 18 18 19 20 18 17 17 19 21 22 23 24 25 26 27 27 27 29 30 29 29 29 29 28 26 25 25 24 24 24 23 24 24
3 2 4 6 4 2 4 3 5 11 10 5 5 7 6 5 8 6 2 3 3 2 7 6 1 2 4 6 10 12 14 14 12 12 12 11 10 10 10 8 8 7 6 5 5 5 8 11 12 13 13 13 17 19 20 20 20 20 19 18 19 21 22 23 24 26 27 27 27 27 29 30 30 30 29 29 28 27 25 25 25 25 24 24 24 25
4 3 4 6 6 6 7 6 4 7 7 3 4 8 10 6 7 7 3 3 3 2 7 7 4 4 7 11 12 12 14 14 12 12 11 10 10 9 8 8 7 7 7 6 6 5 7 9 11 13 14 16 19 21 21 20 19 20 22 21 20 22 24 25 27 28 28 28 28 28 29 31 30 29 28 28 28 27 26 26 26 26 26 25 24 25
2 2 3 6 7 5 4 3 3 2 4 3 3 5 9 8 6 6 5 4 6 5 4 6 13 12 9 13 14 12 13 14 12 12 11 10 10 8 8 8 7 7 7 6 6 6 8 9 11 13 14 16 19 20 19 18 18 19 20 19 19 22 25 27 28 29 29 29 29 29 29 30 30 29 27 27 27 27 27 27 27 27 27 27 25 25
1 2 4 5 5 5 3 4 5 4 3 3 2 4 5 8 8 5 4 6 8 7 3 7 18 17 10 13 15 13 14 14 11 12 11 9 9 8 8 9 9 8 7 6 7 8 8 8 9 12 14 15 18 19 18 19 19 19 18 18 21 24 27 28 29 29 29 29 29 29 28 27 27 28 27 27 27 27 27 27 28 28 28 28 27 26
3 2 6 5 3 3 4 4 5 4 3 2 3 6 7 9 10 6 4 6 7 8 8 12 17 17 13 13 14 13 13 14 13 12 11 10 10 9 9 9 9 9 8 8 9 8 7 6 7 11 14 15 17 18 18 19 19 17 17 20 23 26 28 29 30 29 28 27 27 28 27 25 26 27 27 27 27 27 27 27 27 28 28 29 29 28
4 0 3 6 2 3 1 2 6 5 3 4 2 2 3 4 5 5 4 5 8 11 17 19 14 11 10 11 12 12 11 13 12 11 11 11 11 10 9 9 9 9 10 9 8 6 6 7 8 11 14 16 17 17 17 18 17 17 18 22 25 27 29 30 30 28 27 27 27 27 26 25 26 26 27 27 27 27 28 27 26 27 28 29 29 29
4 0 2 5 3 4 5 8 10 9 6 4 7 10 10 6 7 10 10 12 14 12 16 20 14 7 6 9 12 12 11 12 13 12 12 11 10 10 9 9 10 10 10 8 6 6 6 7 9 12 14 15 15 16 16 17 17 18 22 25 27 28 30 30 29 28 27 27 26 26 25 25 25 26 26 27 27 26 27 27 26 27 28 29 29 29
4 1 3 5 5 2 6 9 9 10 13 11 10 11 9 6 8 7 6 10 15 16 16 16 11 6 6 11 13 12 12 13 13 14 12 10 10 10 10 11 10 9 9 7 6 5 5 6 8 12 14 15 15 15 15 15 16 19 24 26 27 29 30 29 28 27 27 27 25 25 25 25 25 26 26 26 27 26 26 26 26 27 29 29 29 29
4 4 2 4 5 2 5 7 7 7 8 6 5 8 6 4 12 11 9 8 12 17 15 10 8 9 13 16 15 13 13 13 11 11 11 11 11 11 11 11 10 8 8 7 6 5 5 7 11 14 16 19 20 20 18 15 15 21 25 26 27 29 29 28 27 26 26 27 27 26 25 25 24 25 25 25 25 26 26 27 26 27 28 29 28 28
5 6 2 3 4 2 4 6 6 5 4 1 5 6 3 7 18 16 10 9 9 10 8 8 11 13 14 16 17 15 12 10 8 7 8 9 10 11 11 10 9 8 7 6 6 6 8 12 16 19 21 23 23 22 22 20 19 24 27 28 28 28 28 28 26 25 26 27 28 27 26 26 26 26 26 26 26 26 26 27 26 26 28 29 28 28
6 7 3 3 4 1 2 6 5 2 1 4 4 6 5 10 22 23 14 10 10 13 15 15 14 14 12 13 14 14 11 10 9 9 9 9 9 10 11 10 8 8 7 6 6 8 12 16 19 21 23 23 22 22 22 22 22 25 27 28 28 28 27 27 25 24 24 25 26 26 26 26 27 28 29 28 28 27 27 27 26 26 27 28 29 28
6 5 4 3 3 2 2 4 3 2 2 2 4 9 5 3 13 19 14 10 7 11 16 16 14 13 13 13 12 13 13 13 11 9 8 9 10 9 9 8 7 7 7 8 10 12 16 19 21 22 22 22 22 22 22 23 23 24 25 27 28 27 26 25 23 23 23 23 24 24 25 25 26 28 29 28 28 29 29 27 26 26 27 27 27 28
8 6 4 3 2 2 4 4 2 1 1 2 4 5 2 5 3 7 8 5 4 7 11 15 15 14 14 13 13 13 14 14 11 7 5 7 10 9 8 8 9 10 12 14 17 19 20 21 21 21 21 20 20 20 22 23 25 26 25 24 24 24 23 22 22 22 24 26 25 24 26 27 28 29 30 30 30 30 30 29 28 28 28 27 26 27
7 7 6 4 1 2 5 4 2 0 2 3 3 4 6 4 2 6 8 5 3 6 9 13 16 15 15 14 14 14 14 12 8 3 1 4 8 8 8 11 14 16 17 18 20 20 20 20 20 19 19 19 19 19 21 24 26 28 27 24 21 21 21 21 22 24 27 28 28 27 28 29 31 33 33 32 32 31 31 31 30 29 29 28 26 26
5 5 6 6 3 2 4 4 3 2 3 5 5 3 5 8 8 6 6 2 5 9 10 12 14 14 15 15 15 15 13 8 6 5 3 3 6 8 8 10 15 18 19 20 21 20 18 17 17 17 18 19 20 20 20 21 23 25 27 26 23 22 22 22 24 26 29 29 28 28 27 27 29 33 33 32 32 31 31 30 29 29 29 29 27 26
5 4 6 5 4 3 4 3 2 1 2 5 6 6 6 8 6 4 3 4 9 12 12 13 14 12 14 15 12 10 8 8 9 8 6 6 9 10 9 10 13 17 19 19 19 18 17 18 18 18 18 18 20 21 21 20 21 23 24 25 25 24 24 24 24 25 26 27 26 26 25 24 26 31 32 31 30 30 30 29 28 29 29 29 28 27
2 2 5 5 5 4 4 3 1 1 2 2 4 5 5 3 3 2 4 6 12 15 13 13 14 13 14 12 7 3 4 7 10 10 9 9 11 10 11 14 17 17 17 17 17 16 17 19 20 20 18 16 18 22 22 21 21 22 22 23 23 23 22 23 22 22 22 23 23 24 24 22 24 28 30 29 28 28 29 29 28 28 29 30 29 28
1 2 4 5 5 4 3 3 2 0 2 2 1 1 3 4 1 3 3 8 14 16 14 14 15 14 12 9 5 6 9 11 12 11 11 11 9 9 11 16 17 16 15 17 16 17 18 20 20 19 17 16 18 21 22 22 22 22 21 21 21 19 19 20 20 20 19 20 21 23 24 23 22 24 26 28 27 27 27 28 29 29 29 30 30 30
1 2 4 3 3 3 3 2 2 2 2 2 2 3 3 1 4 5 8 11 13 14 14 14 13 11 11 9 9 13 15 15 12 11 11 10 9 11 15 16 16 15 16 16 15 17 20 22 20 18 16 17 21 22 21 22 22 21 21 21 19 17 16 17 17 18 18 19 19 20 23 23 21 21 21 24 26 27 27 27 28 29 30 30 31 31
1 1 2 1 1 2 3 2 2 2 1 2 2 2 2 3 6 8 10 11 10 11 12 11 10 11 12 13 14 15 16 15 12 11 11 10 10 12 16 16 16 16 16 16 17 19 22 21 18 16 16 19 22 21 20 22 24 22 21 19 17 16 16 16 15 16 17 18 17 18 21 22 21 20 18 19 23 25 27 27 28 29 30 31 31 31
1 3 5 3 1 2 4 2 2 3 4 6 6 6 7 9 8 9 11 11 10 9 9 10 12 14 14 15 16 14 14 14 13 11 11 10 10 12 15 16 16 16 16 17 19 21 22 20 16 15 18 20 19 16 17 22 25 23 20 17 15 16 17 16 15 15 15 15 15 16 19 21 21 20 19 18 20 22 25 26 28 29 30 30 31 30
2 4 6 5 4 5 6 4 5 7 8 8 9 8 10 10 9 9 11 10 8 9 10 11 13 14 14 16 15 13 12 14 14 12 11 10 9 12 15 16 16 17 18 18 20 21 20 16 14 15 19 18 15 14 16 21 22 20 18 15 15 16 16 16 15 15 14 14 13 14 16 18 19 20 20 18 18 19 21 23 26 28 30 30 30 29
3 2 4 4 4 4 4 3 7 10 9 9 9 9 10 11 9 9 9 9 10 12 12 12 14 14 13 14 15 14 13 14 14 13 10 9 10 12 15 16 17 19 20 19 21 20 17 14 16 19 20 19 17 18 19 19 19 17 16 14 13 14 16 17 16 15 13 13 12 12 13 14 15 16 17 18 17 17 18 20 22 25 28 29 29 29
3 4 5 5 4 4 5 6 9 11 9 9 9 8 9 11 12 11 11 11 13 14 13 14 15 14 11 11 13 15 14 12 12 12 10 10 11 12 13 15 18 20 20 19 19 19 16 16 20 22 21 20 18 18 19 18 17 16 17 18 16 14 15 17 18 16 14 13 12 11 10 9 10 12 13 15 16 17 16 17 19 21 24 26 27 27
4 4 5 6 6 7 7 9 11 11 9 9 9 8 9 10 12 14 14 14 15 15 14 14 14 14 14 13 12 14 15 12 11 12 11 9 10 12 14 17 21 22 21 19 17 17 17 19 21 21 20 20 17 16 16 15 14 14 16 19 20 18 16 16 17 18 18 17 17 14 11 8 7 9 11 13 15 16 15 15 16 17 18 20 23 24
5 5 6 7 7 5 5 8 9 9 7 6 9 10 10 11 13 15 15 14 15 14 14 14 14 15 16 16 15 14 13 12 13 14 12 10 11 15 18 21 23 22 21 19 17 17 19 21 20 19 19 19 16 15 15 15 16 16 16 16 17 18 17 16 15 17 19 20 20 17 15 12 9 8 10 12 14 15 14 14 14 16 16 16 18 20
4 7 6 6 6 6 7 8 8 7 8 8 10 11 10 11 13 14 14 14 13 13 14 14 15 14 13 15 18 17 13 13 16 16 12 12 15 18 20 22 23 21 20 20 19 19 20 20 17 17 18 17 15 15 16 17 17 17 17 16 17 17 15 14 15 15 16 17 19 18 18 18 15 12 12 13 15 15 14 14 14 15 16 16 16 17
Wind_Direction
197 208 220 212 204 201 211 223 215 216 235 241 221 180 199 217 237 245 215 174 178 188 210 212 204 203 207 173 161 138 115 121 130 134 134 136 133 127 121 116 114 107 109 115 108 107 110 105 100 98 104 113 118 121 127 132 139 142 147 157 164 170 178 181 181 188 194 195 201 212 227 237 240 248 249 246 251 258 266 273 275 274 273 271 267 265
201 219 224 208 197 201 206 213 219 230 238 243 238 200 202 206 225 248 216 169 177 181 204 212 190 189 205 166 157 144 118 128 140 143 143 137 124 117 115 112 109 106 108 106 107 119 117 106 101 103 108 111 111 115 118 118 125 131 138 149 159 165 171 173 175 184 190 188 204 230 244 252 257 264 270 268 269 276 281 280 278 278 280 279 276 272
210 224 216 198 198 206 202 198 214 236 243 244 249 234 229 213 217 246 212 168 176 181 196 204 190 192 199 160 158 141 110 127 139 140 142 130 118 112 110 109 106 106 110 111 125 131 112 99 95 94 96 99 100 104 106 107 112 118 121 124 140 155 162 170 179 186 188 185 202 237 250 258 269 278 283 282 280 282 286 285 279 278 279 279 278 274
210 217 202 200 195 199 202 196 207 231 245 243 243 235 251 238 219 238 190 169 178 181 180 189 187 187 177 141 135 106 90 92 90 94 104 108 111 111 106 107 108 109 110 110 116 111 102 98 96 94 92 92 93 93 95 99 104 107 109 109 118 129 128 148 167 168 163 172 205 239 249 262 282 295 292 282 275 274 277 276 273 274 276 277 274 272
213 179 186 206 196 195 207 205 203 216 239 241 236 228 242 247 238 227 170 168 179 190 173 155 124 155 148 117 110 99 91 90 86 85 83 83 93 100 101 101 102 108 110 109 106 103 101 97 95 97 95 91 89 87 85 86 90 93 98 105 104 100 91 78 65 60 65 48 3 319 308 301 294 295 292 282 276 274 270 268 270 273 276 275 273 272
218 173 178 203 201 201 212 215 205 202 225 244 236 228 233 245 256 244 163 157 167 207 192 140 114 304 183 120 122 106 95 98 96 94 92 88 87 90 95 98 100 103 101 100 99 95 93 88 86 90 90 90 86 83 83 80 81 81 80 82 78 76 72 56 36 21 16 4 355 346 333 318 298 287 282 280 281 283 278 273 274 277 277 274 275 279
214 186 181 197 200 203 213 221 213 200 207 239 231 224 231 240 258 261 182 158 164 198 192 150 139 235 281 132 131 112 103 102 95 93 97 91 87 88 93 99 101 98 90 87 86 84 88 87 86 84 84 85 78 76 82 78 75 73 68 70 70 67 58 49 42 27 19 12 0 341 322 308 295 289 288 289 292 292 289 285 283 283 282 277 277 282
201 194 188 194 199 203 210 216 212 202 202 232 231 222 229 234 245 254 216 174 177 175 155 138 133 135 197 203 157 123 108 101 95 93 97 94 92 95 94 90 89 92 91 91 91 87 87 88 88 84 79 79 74 71 73 68 66 67 65 65 67 65 56 48 49 46 42 38 32 18 359 349 331 318 318 320 319 313 305 298 294 292 289 283 282 283
195 204 193 190 199 205 207 209 209 208 209 226 236 231 233 232 236 249 238 183 173 161 128 134 128 125 192 213 159 134 119 113 113 111 108 105 104 100 95 91 88 89 90 91 93 89 87 90 90 85 77 75 72 68 68 65 63 64 62 58 54 54 49 42 42 42 43 44 44 40 30 24 16 5 355 346 342 338 328 317 307 299 294 289 288 289
191 215 206 190 198 208 205 204 208 215 215 217 235 244 244 239 235 238 234 183 159 156 167 160 144 129 207 218 164 150 137 128 125 122 118 113 111 109 104 101 97 93 91 90 92 89 88 90 87 83 76 71 68 65 65 63 59 59 58 51 44 42 42 37 36 37 39 40 41 39 34 28 20 13 8 1 358 354 345 337 328 317 307 299 296 296
194 210 221 203 196 203 203 201 211 220 214 203 226 247 256 247 240 147 201 166 139 169 192 174 158 137 156 209 188 165 142 135 131 125 123 118 115 113 107 105 103 102 100 96 96 96 95 90 84 81 76 72 68 62 60 58 55 54 52 49 44 38 37 37 34 34 35 35 36 35 31 27 21 15 12 7 4 1 356 347 339 335 325 312 315 314
206 199 215 214 191 192 201 202 209 219 216 207 217 231 254 258 283 42 257 162 156 209 211 181 166 148 152 215 199 150 136 137 138 134 131 127 121 114 106 103 103 101 100 97 94 97 96 89 82 78 75 74 71 66 63 59 54 50 48 49 49 43 41 41 35 30 29 29 29 30 27 24 19 15 12 9 4 2 1 353 343 341 333 320 323 323
219 201 204 209 188 185 200 200 201 214 210 209 215 198 213 244 193 188 204 184 192 219 203 174 165 160 154 259 216 136 137 139 134 131 131 129 124 119 111 105 101 96 95 94 90 87 84 81 77 74 70 69 70 70 69 63 56 52 51 51 52 52 51 48 41 35 31 27 25 25 25 21 17 15 13 11 6 1 3 358 349 344 335 326 324 317
225 215 200 202 189 183 198 194 189 208 195 201 214 181 175 186 175 191 176 178 211 212 184 163 154 170 132 347 345 107 120 122 116 117 120 122 121 117 113 110 104 100 98 97 97 90 81 79 77 73 68 64 63 69 71 66 64 64 59 55 53 51 46 46 47 41 34 33 30 25 23 19 15 14 14 13 8 2 2 359 354 349 339 333 332 323
208 221 194 196 186 177 198 203 184 191 187 205 213 168 173 189 160 180 162 160 196 186 157 149 138 16 111 26 10 87 97 101 106 110 111 112 114 111 110 112 108 105 105 102 99 94 92 95 90 83 77 71 67 75 79 69 64 70 63 57 55 49 41 46 51 43 39 40 36 28 24 21 16 12 13 14 9 3 1 1 360 356 347 340 338 334
206 226 189 192 193 177 192 209 187 182 194 210 201 165 198 207 145 152 167 154 153 139 122 122 94 49 88 74 67 88 94 100 107 111 113 114 116 118 116 115 114 113 110 100 93 88 90 97 100 99 95 89 78 82 90 72 55 68 72 63 59 55 53 58 59 49 43 40 36 31 27 25 20 14 12 11 6 4 5 6 5 3 358 351 344 341
196 224 185 186 204 191 186 198 194 187 189 192 194 193 205 203 147 124 160 141 114 123 152 73 104 108 103 67 79 101 103 108 115 116 118 121 123 122 117 118 121 119 112 101 92 87 82 85 94 100 97 89 70 63 81 75 54 67 79 72 67 63 59 63 67 60 50 43 40 37 31 27 25 20 17 12 6 5 6 6 6 5 3 2 357 351
180 229 191 184 204 207 183 187 205 206 190 170 195 208 191 209 206 126 122 28 95 121 260 0 135 151 158 149 133 126 115 117 124 121 120 121 121 118 116 123 125 118 113 106 99 95 87 84 89 93 92 92 82 71 74 66 60 76 82 71 65 57 45 48 62 61 52 47 44 40 36 32 30 27 22 17 13 10 7 4 3 2 1 3 3 358
189 189 212 193 196 200 174 173 212 236 231 188 176 179 159 189 228 176 159 175 131 128 87 125 159 181 189 173 159 148 139 136 133 128 127 126 124 121 119 121 119 113 109 103 100 96 87 84 88 101 106 107 101 89 75 60 63 77 77 63 55 45 35 40 60 60 52 49 44 40 38 31 29 32 29 23 19 16 12 8 4 3 1 2 2 359
193 143 206 201 178 166 164 173 208 235 244 217 164 168 177 179 185 174 183 172 136 134 127 136 173 225 246 176 168 160 150 145 143 138 134 130 127 122 119 119 115 108 102 102 107 106 106 105 105 113 110 99 97 89 71 60 62 69 68 59 51 44 40 45 59 63 57 51 44 41 37 29 29 34 33 29 25 19 15 12 9 6 3 3 1 360
150 110 184 206 170 155 166 197 206 204 212 217 177 178 199 197 169 171 218 187 135 132 136 139 178 236 245 175 168 157 147 145 143 136 129 127 124 119 119 119 111 105 104 108 111 114 133 139 129 110 92 84 89 83 69 62 60 61 62 59 54 49 43 42 51 60 56 49 45 43 39 35 36 36 33 31 27 22 17 14 11 8 4 2 2 2
113 135 185 214 185 172 179 198 209 208 199 199 195 187 188 181 159 148 245 231 143 135 145 145 159 190 324 274 153 144 140 142 138 130 126 123 122 121 118 113 108 108 108 104 103 108 135 139 123 101 80 72 76 78 73 64 57 57 60 61 55 46 40 40 47 53 50 46 44 42 41 39 38 35 33 31 27 22 19 16 13 9 6 3 2 4
106 129 145 188 212 216 201 195 202 218 230 224 220 198 171 166 145 132 177 218 187 139 121 106 124 157 338 8 133 133 132 133 130 128 126 124 124 121 113 109 109 112 110 105 106 115 99 98 101 93 80 73 71 73 73 65 59 58 60 61 53 43 43 48 50 49 46 44 43 42 42 40 37 35 34 32 27 23 20 17 13 11 8 5 4 6
90 99 140 167 208 245 243 212 192 210 236 248 233 201 172 177 161 141 155 180 194 178 121 87 73 127 28 67 116 124 124 124 125 126 125 123 122 116 112 113 113 111 106 101 96 81 73 77 80 77 73 75 74 71 68 64 59 52 51 58 56 49 49 52 51 50 48 45 44 44 42 39 36 36 34 31 28 24 21 18 15 13 11 7 7 8
154 155 126 145 163 200 237 249 197 205 219 231 224 205 191 172 158 152 120 132 194 185 124 117 109 139 126 112 114 120 122 121 122 124 122 120 118 116 118 120 119 112 101 91 83 69 71 73 71 66 62 66 71 67 62 61 56 46 45 53 55 50 51 53 53 53 49 45 45 44 42 39 36 35 33 31 29 26 23 21 18 17 15 11 10 11
197 179 118 142 170 182 196 216 217 202 201 218 235 204 193 179 156 157 137 130 179 121 104 120 126 115 117 116 116 122 124 122 122 120 115 115 116 118 124 121 112 106 97 91 84 69 69 69 64 62 57 61 69 67 63 62 55 48 49 53 53 53 54 55 53 51 47 43 43 42 41 39 36 34 33 32 30 28 25 23 22 21 19 16 14 13
223 180 131 144 172 190 207 245 251 182 169 196 281 234 201 205 192 149 128 159 163 110 74 126 133 129 130 130 131 135 132 126 126 123 116 115 117 118 119 113 104 103 103 101 93 77 70 62 57 58 59 67 75 73 68 65 57 53 52 49 50 55 58 57 53 49 45 42 41 41 40 38 35 34 34 33 31 29 27 25 24 24 22 20 19 17
146 176 171 156 173 199 238 282 259 217 180 160 241 281 238 218 214 166 140 178 155 108 74 148 138 135 147 147 142 144 137 130 127 125 121 120 121 119 116 112 110 110 108 102 90 80 73 61 53 56 58 66 75 75 70 66 61 58 52 45 50 59 61 58 53 49 44 41 41 41 39 37 36 35 34 33 32 30 28 26 25 26 25 24 23 20
111 180 188 161 160 209 215 257 265 229 219 175 209 252 257 234 220 194 168 182 156 128 148 163 148 139 145 148 141 139 135 128 124 122 120 120 119 120 121 120 119 116 106 94 86 81 79 69 60 63 64 65 71 73 70 66 64 57 47 49 60 65 61 57 54 50 44 42 43 42 39 38 38 37 36 35 33 31 29 28 27 28 27 26 26 23
92 252 196 147 127 307 257 34 11 2 292 272 273 316 304 250 195 136 110 109 109 122 138 141 131 120 128 135 131 126 122 119 118 117 118 120 124 128 130 123 114 106 97 91 88 84 85 85 77 75 72 67 69 73 72 70 68 55 48 58 68 65 60 58 56 50 45 43 44 43 40 39 38 37 36 35 35 33 31 29 29 30 29 28 27 26
89 346 296 117 117 326 10 45 35 41 52 28 21 30 34 53 89 100 103 97 92 101 122 124 113 92 103 116 115 117 119 118 120 122 124 129 135 136 128 114 105 101 97 96 96 90 91 96 89 82 79 75 77 82 82 81 75 60 60 69 71 66 62 60 56 51 48 46 45 43 40 39 38 36 36 34 33 32 31 29 30 32 31 29 27 26
92 127 339 76 106 335 11 42 50 70 71 53 26 11 13 52 80 80 92 109 118 124 123 120 119 127 132 120 113 117 123 123 128 134 134 137 138 130 120 112 107 105 106 106 104 98 97 96 91 89 83 71 66 65 66 74 75 67 70 74 72 67 65 61 57 55 52 48 46 44 41 39 38 36 36 35 32 31 29 28 31 32 31 30 28 26
106 112 47 85 102 346 1 39 41 57 63 44 358 330 323 85 90 68 43 67 116 133 139 142 143 142 137 129 125 129 131 132 139 141 137 137 132 121 113 112 110 109 111 111 109 104 92 75 71 76 73 61 54 51 50 59 69 71 74 75 71 68 65 60 57 56 55 51 47 44 41 38 35 33 33 33 32 32 30 29 31 32 31 29 27 26
109 104 73 88 99 351 350 42 46 56 81 284 294 313 308 109 98 82 54 51 77 97 103 111 122 128 132 132 131 132 129 126 123 115 116 124 124 117 110 108 106 108 110 110 105 90 79 73 67 67 67 61 56 56 55 59 69 77 77 75 71 69 64 59 56 54 55 53 49 46 44 40 38 36 34 33 32 30 29 30 32 31 30 29 27 25
103 102 75 56 94 131 0 51 71 115 177 263 318 21 43 95 96 88 66 50 75 95 98 104 116 125 124 121 121 118 109 96 83 77 87 99 106 110 111 110 113 118 116 109 98 82 77 76 70 65 66 64 61 59 57 58 69 82 82 76 72 69 64 60 56 54 56 55 52 51 49 47 47 43 40 37 34 29 27 29 34 33 31 30 29 27
116 110 94 65 79 103 53 70 110 193 256 245 71 60 29 29 87 87 68 40 67 109 116 118 119 117 114 112 113 111 106 94 75 55 65 90 97 101 110 121 127 124 116 108 98 88 81 79 76 72 70 68 66 62 58 57 64 75 81 78 74 70 66 63 60 58 57 55 54 51 47 47 48 43 39 38 35 31 27 27 32 33 31 30 30 30
124 117 102 79 57 94 99 83 74 341 255 182 116 113 192 278 342 92 93 70 75 109 122 125 121 119 120 119 117 116 110 99 82 45 37 84 101 107 118 125 118 108 107 106 99 92 88 86 84 82 78 75 71 66 62 62 63 65 70 76 77 75 72 68 65 62 58 55 52 48 45 48 48 44 40 39 37 34 31 30 31 31 29 27 27 28
112 129 128 113 64 91 109 105 93 172 208 211 208 181 160 160 163 120 104 94 107 107 114 123 125 128 129 127 128 127 115 102 99 106 57 92 108 117 120 115 108 104 103 103 99 96 95 95 95 94 91 87 80 71 67 67 66 62 60 63 71 76 74 67 64 64 61 58 54 50 51 55 53 48 45 42 39 38 36 35 34 32 30 28 26 26
46 100 104 101 97 85 100 117 142 158 209 212 209 187 148 161 170 136 93 111 157 134 122 124 128 136 139 138 142 140 130 123 136 160 184 155 122 119 119 111 107 105 102 101 102 102 103 104 104 105 105 100 93 85 77 73 70 65 60 57 60 64 64 62 66 69 67 63 60 57 59 61 56 50 49 47 43 42 40 39 37 34 31 31 29 29
5 72 88 96 109 107 93 94 115 150 215 196 176 174 183 186 173 128 121 192 168 149 141 136 137 144 146 146 150 151 145 148 152 157 171 148 119 117 119 108 103 106 108 110 113 114 114 111 103 100 101 103 103 99 92 87 82 74 67 62 60 60 60 62 68 74 72 68 65 62 62 63 59 54 52 50 48 46 43 41 38 35 32 30 30 30
321 71 99 111 114 114 105 94 91 265 260 207 165 173 177 128 76 119 190 178 152 147 147 142 142 149 152 151 155 142 109 123 135 143 146 131 122 126 124 110 106 110 114 118 122 123 120 112 106 103 102 103 109 107 100 96 93 86 78 72 66 63 64 66 69 72 72 69 66 61 60 63 63 57 52 51 52 50 46 43 40 35 32 30 29 29
248 59 90 113 122 120 106 93 91 139 271 268 279 65 77 76 103 206 163 132 137 143 143 142 147 155 154 143 124 110 111 117 127 135 136 134 135 137 124 115 116 118 116 119 121 117 109 102 101 102 98 94 105 109 104 100 99 95 89 83 76 71 71 72 72 70 70 70 66 62 61 64 66 60 52 50 53 53 49 46 44 39 35 32 30 30
208 89 86 99 114 109 97 91 131 163 227 268 308 8 30 106 181 155 116 117 131 136 138 143 150 152 142 125 117 122 124 127 134 138 136 137 135 127 122 123 127 126 125 127 124 113 104 98 96 99 98 94 99 103 104 104 103 100 94 89 84 81 79 80 78 73 72 75 71 65 65 66 66 63 54 49 51 53 52 49 47 44 40 36 33 32
285 145 126 99 335 119 124 134 169 178 319 4 86 122 88 110 136 133 122 124 132 136 140 142 139 135 129 124 127 129 129 133 140 140 136 136 132 126 129 135 136 134 133 131 121 109 104 102 103 106 100 94 94 96 102 105 104 101 97 93 91 87 81 81 82 79 80 83 77 70 70 70 67 66 61 51 47 51 53 52 50 47 43 40 37 36
336 103 112 94 46 96 113 123 129 106 61 62 89 109 102 98 107 117 119 125 134 139 138 132 129 130 131 130 131 132 133 135 136 136 137 139 137 137 141 146 145 142 138 131 120 114 110 112 118 112 97 95 98 101 107 110 106 103 102 101 100 95 87 82 81 78 81 88 86 78 75 71 66 66 66 58 49 48 51 53 52 50 47 44 41 39
139 115 97 97 101 84 64 57 83 83 76 77 87 97 101 102 105 110 113 118 122 121 122 126 129 131 134 134 132 131 135 135 133 138 144 141 138 138 136 135 133 128 123 115 111 113 116 122 126 112 100 99 96 90 103 114 112 109 109 108 107 101 92 86 82 76 75 86 93 90 80 71 64 62 62 60 55 51 49 51 53 53 51 48 45 43
186 150 85 101 130 105 68 77 90 86 85 87 87 90 97 98 98 100 102 105 107 111 117 123 125 128 132 134 133 132 136 138 138 142 144 135 132 132 127 126 123 117 114 112 111 115 121 120 111 101 96 92 80 74 89 105 105 104 104 103 107 109 100 87 79 73 72 80 92 97 87 73 65 62 60 58 57 55 52 50 51 54 55 51 48 45
155 119 94 93 100 96 106 117 103 89 85 83 80 86 96 98 98 97 98 104 108 111 118 122 125 129 131 133 134 133 134 138 138 135 132 129 134 138 136 132 123 117 119 121 122 126 128 116 105 98 94 92 83 76 80 82 80 82 79 74 82 100 103 89 77 69 66 69 80 94 93 76 67 64 62 58 55 53 54 51 48 51 55 53 48 46
97 99 105 105 100 98 111 120 111 98 89 83 85 92 98 100 104 104 106 112 115 117 122 124 125 128 130 133 137 133 131 134 133 130 131 135 140 141 136 127 121 121 126 129 129 130 125 115 109 108 103 99 95 91 89 88 87 84 74 66 69 75 78 78 75 70 67 67 70 78 83 79 72 66 61 57 53 48 49 49 46 46 51 52 47 45
80 106 118 118 123 135 143 137 125 114 112 109 106 107 106 105 108 110 113 118 121 123 126 123 120 124 128 131 135 133 129 133 135 135 136 137 135 134 128 123 124 127 130 130 127 121 114 107 105 106 107 107 106 101 98 101 103 98 86 73 67 63 59 61 63 64 70 74 71 65 61 61 66 72 66 59 53 47 43 43 42 40 43 45 43 41
124 152 149 129 135 148 141 132 120 110 115 119 113 111 110 110 112 115 119 122 123 125 128 127 126 127 126 128 134 135 132 137 142 141 136 130 128 125 123 125 129 132 134 133 127 116 111 106 95 87 89 93 92 87 87 92 100 106 103 88 74 69 66 64 63 63 69 78 76 65 58 58 64 75 79 69 58 48 41 40 42 40 39 42 42 39